Orbital Elements at Epoch 2459200.5 (2020-Dec-17.0) TDB
Reference: JPL 15 (heliocentric ecliptic J2000)
Element | Value | Uncertainty (1-sigma) | Units |
e | .02162084518201906 | 5.1937e-08 | |
a | 2.388795488496763 | 1.3526e-08 | au |
q | 2.337147711068468 | 1.209e-07 | au |
i | 3.956900668598523 | 4.2634e-06 | deg |
node | 247.6954769118615 | 8.139e-05 | deg |
peri | 298.6390414405674 | 0.00014447 | deg |
M | 262.4304198446523 | 0.00012157 | deg |
tp | 2459565.992792883766 (2021-Dec-17.49279288) | 0.00045566 | TDB |
period | 1348.549468273429 3.69 | 1.1454e-05 3.136e-08 | d yr |
n | .2669534996450031 | 2.2673e-09 | deg/d |
Q | 2.440443265925057 | 1.3818e-08 | au |
|
| | Orbit Determination Parameters
Additional Information
|